Location: Dammartin
(48.9032°N, 1.6195°E)
Time: 12:15:26
(UTC+00:00)

YUBILEINY - Pass Details

Date: 06 December 2023
Orbit: 1479 x 1508 km, 82.5° (Epoch: 02 March)

Event Time Altitude Azimuth Distance (km) Brightness Sun altitude
Rises 22:33:54 0° 340° (NNW) 4,628 ? -60.2°
Reaches altitude 10° 22:38:31 10° 319° (NW) 3,638 ? -60.6°
Enters shadow 22:39:38 12° 312° (NW) 3,481 ? -60.7°
